Regional Weather Roundup
Issued by NWS

Home | Current Version | Previous Version | Graphics & Text | Print | Product List | Glossary Off
Versions: 1 2 3 4 5 6 7 8 9 10 11 12 13 14 15 16 17 18 19 20 21 22 23 24 25 26 27 28 29 30 31 32 33 34 35 36 37 38 39 40 41 42 43 44 45 46 47 48 49 50

000
ASUS43 KMKX 221700
RWRWI

WISCONSIN REGIONAL WEATHER ROUNDUP
NATIONAL WEATHER SERVICE MILWAUKEE/SULLIVAN WI
1200 PM CDT FRI AUG 22 2014

NOTE: "FAIR" INDICATES FEW OR NO CLOUDS BELOW 12,000 FEET WITH NO
SIGNIFICANT WEATHER AND/OR OBSTRUCTIONS TO VISIBILITY.

WIZ001-002-006>008-014>016-023>028-221800-
NORTHWEST WISCONSIN

CITY           SKY/WX    TMP DP  RH WIND       PRES   REMARKS
SUPERIOR ARPT  CLOUDY    61  61  99 E8        29.99S FOG
ASHLAND        CLOUDY    65  63  93 N5        29.99R FOG
HAYWARD        CLOUDY    69  68  96 NE5       29.97R FOG
SIREN          CLOUDY    66  64  94 N5        29.98R
RICE LAKE      CLOUDY    73  71  92 CALM      29.97R
LADYSMITH      CLOUDY    73  71  95 CALM      29.97S FOG
EAU CLAIRE     CLOUDY    77  72  84 S5        29.94R
MENOMONIE      PTSUNNY   79  70  74 W5        29.95R HX  82
NEW RICHMOND   CLOUDY    73  69  88 NW7       29.97R
OSCEOLA        CLOUDY    70  69  97 N5        29.99S
$$

WIZ003>005-009-010-017-018-221800-
NORTH CENTRAL WISCONSIN

CITY           SKY/WX    TMP DP  RH WIND       PRES   REMARKS
WOODRUFF       CLOUDY    72  70  93 SE3       29.99R FOG
RHINELANDER    CLOUDY    68  67  96 VRB3      30.00R FOG
EAGLE RIVER    CLOUDY    70  67  90 CALM      29.99S
LAND O LAKES   CLOUDY    69  66  90 S3        30.01R
PHILLIPS       CLOUDY    70  68  95 SE5       29.97R
TOMAHAWK       CLOUDY    70  67  90 CALM      29.98R
MEDFORD        CLOUDY    70  70 100 SE7       29.97R FOG
MERRILL        CLOUDY    68  68 100 CALM      29.98R FOG
$$

WIZ029-030-035-036-043>047-221800-
CENTRAL WISCONSIN

CITY           SKY/WX    TMP DP  RH WIND       PRES   REMARKS
WAUSAU         CLOUDY    72  69  90 S7        29.96R FOG
MOSINEE        CLOUDY    72  72 100 SE3       29.98R FOG
MARSHFIELD     CLOUDY    75  72  90 S7        29.96R FOG
STEVENS POINT  CLOUDY    74  70  87 SE7       29.97S HAZE
WAUPACA        CLOUDY    76  74  93 SE3       29.96S FOG
WAUTOMA        MOSUNNY   82  73  74 S7        29.95F HX  88
WISC RAPIDS    CLOUDY    80  73  79 SW7       29.97R HX  84
CAMP DOUGLAS   CLOUDY    79  79 100 S1        29.95S HX  83
$$

WIZ011>013-019>022-031-037>040-048>050-221800-
NORTHEAST WISCONSIN

CITY           SKY/WX    TMP DP  RH WIND       PRES   REMARKS
ANTIGO         LGT RAIN  67  67 100 CALM      30.00R
STURGEON BAY   CLOUDY    72  66  83 E7        29.99R
GREEN BAY      CLOUDY    76  72  87 S6        29.97R FOG
MANITOWOC      NOT AVBL
APPLETON       PTSUNNY   75  72  88 VRB3      29.97S FOG
CLINTONVILLE   CLOUDY    73  70  88 E3        29.98R FOG
OSHKOSH        MOSUNNY   80  73  79 S6        29.96S HX  84
$$

WIZ032>034-041-042-053>061-221800-
SOUTHWEST WISCONSIN

CITY           SKY/WX    TMP DP  RH WIND       PRES   REMARKS
LA CROSSE      CLOUDY    79  73  82 N5        29.94R HX  82
SPARTA         CLOUDY    77  72  85 CALM      29.95S HAZE
VIROQUA        CLOUDY    78  78  99 S6        29.97S HX  80
BOSCOBEL       PTSUNNY   85  75  72 CALM      29.94F HX  93
PRAIRIE DU CHI MOSUNNY   82  73  74 SE5       29.93F HX  87
PLATTEVILLE    FAIR      82  76  84 NE5       29.97S HX  89
$$

WIZ056-057-062-063-064-067-068-221800-
SOUTH CENTRAL WISCONSIN

CITY           SKY/WX    TMP DP  RH WIND       PRES   REMARKS
BARABOO/DELLS  MOSUNNY   84  71  63 S7        29.95S HX  89
LONE ROCK      PTSUNNY   88  75  65 S8        29.94S HX  97
WATERTOWN      PTSUNNY   80  76  88 CALM      29.96S HX  85
MADISON        PTSUNNY   81  74  79 S6        29.96R HX  86
MIDDLETON      PTSUNNY   83  76  79 CALM      29.97S HX  92
MONROE         CLOUDY    77  73  88 CALM      29.96F
JANESVILLE     CLOUDY    81  75  83 S5        29.95S HX  86
$$

WIZ051-052-058>065-066-070>072-221800-
SOUTHEAST WISCONSIN

CITY           SKY/WX    TMP DP  RH WIND       PRES   REMARKS
MILWAUKEE      CLOUDY    74  71  91 E6        29.96F FOG
WAUKESHA       MOSUNNY   81  72  74 CALM      29.97S HX  84
MILWAUKEE/TIMM PTSUNNY   77  70  78 NE6       29.97F
RACINE         CLOUDY    75  70  84 E7        29.98S
BURLINGTON     CLOUDY    78  73  84 E3        29.96S HX  80
KENOSHA        CLOUDY    77  73  87 E6        29.97S
FOND DU LAC    MOSUNNY   83  71  67 S8        29.96S HX  87
SHEBOYGAN      CLOUDY    78  71  79 S6        29.97R HX  80
WEST BEND      CLOUDY    72  70  94 E5        29.98R FOG
JUNEAU         PTSUNNY   80  49  33 SE3       29.97S
$$

LSZ147-162-221800-
LAKE SUPERIOR

STATION/POSITION TIME  TEMP    WIND        PRES    WAVE
                       AIR SEA DIR/SP/G            HT/PER
                 (UTC) (F)     (DEG/KT/KT) (MB)    (FT/S)
W MID LAKE BUOY  1550   57 58   30/ 12/ 14 1014.9R   2/ 4
DEVILS ISLAND    1600   59      70/  9/ 11 1015.5R
PORT WING        1600   59      40/  9/ 10 1015.2S
SAXON HARBOR     1600   65        CALM     1014.9R
$$

LMZ867-665-643>646-221800-
LAKE MICHIGAN

STATION/POSITION TIME  TEMP    WIND        PRES    WAVE
                       AIR SEA DIR/SP/G            HT/PER
                 (UTC) (F)     (DEG/KT/KT) (MB)    (FT/S)
N MID LAKE BUOY  1550   66 65  170/  4/  4 1014.8R   0
NORTHPORT PIER   1600   65     110/  3/  4 1015.2S
SISTER BAY       1556   71     160/  6/  8   N/A
KEWAUNEE LAKESHO 1600   67     100/  2/  3 1013.9F
SHEBOYGAN LAKESH 1600   68 63  160/  8/  9 1014.7F
ATWATER BUOY     1600   69     150/  6/  6 1016.0R
MILWAUKEE LAKESH 1600   69     120/  5/  5   N/A
S MID LAKE BUOY  1550   70 69  170/  4/  6 1014.8R   0
KENOSHA   LAKESH 1600   71      70/  3/  5 1014.6R
$$

TC  - TEMPERATURE IN CELSIUS
VSB - VISIBILITY IN STATUTE MILES
WCI - WIND CHILL INDEX
HX  - HEAT INDEX




USA.gov is the U.S. government's official web portal to all federal, state and local government web resources and services.